Location: Nakusp
(50.2330°N, 117.8000°W)
Time: 12:50:06
(UTC-07:00)

Daily predictions for brighter satellites

Satellite Brightness Start Highest point End
(mag) Time Altitude Azimuth Time Altitude Azimuth Time Altitude Azimuth
Cosmos 1536 Rocket 3.5 20:24:24 10° N 20:28:45 81° E 20:33:05 10° SSE
Meteor 1-19 Rocket 4.5 20:25:43 10° NNW 20:31:39 85° W 20:37:28 10° S
ERS-1 Rocket 3.9 20:27:47 10° ESE 20:32:10 31° ENE 20:36:34 10° N
Lacrosse 5 rocket 3.8 20:30:53 10° WSW 20:32:24 12° SW 20:33:55 10° SSW
ATLAS 3B R/B 2.8 20:27:24 10° NW 20:34:15 66° NE 20:40:47 10° SE
Cosmos 1939 Rocket 2.8 20:32:10 10° SSE 20:36:06 66° ENE 20:39:59 10° N
Cosmos 1536 3.2 20:32:47 10° SSE 20:36:38 42° E 20:40:30 10° NNE
Cosmos 1741 Rocket 4.2 20:31:57 10° NNW 20:37:13 79° WSW 20:42:28 10° SSE
Cosmos 2360 Rocket 3.1 20:34:22 10° SSE 20:38:56 26° ESE 20:43:30 10° NE
Cosmos 1980 Rocket 2.9 20:34:16 10° SW 20:39:48 60° WNW 20:45:22 10° NNE
COSMOS 2428 4.4 20:38:59 10° ESE 20:41:27 13° E 20:43:55 10° ENE
Envisat 3.2 20:38:17 10° S 20:43:22 79° WSW 20:48:30 10° NNW
CZ-4B DEB 3.3 20:47:35 11° SE 20:50:08 34° ENE 20:52:48 10° N
SAR-Lupe-4 4.5 20:46:55 10° SE 20:50:09 33° ENE 20:53:25 10° N
NOSS 2-3 (D) 4.2 20:46:16 10° SSW 20:50:51 48° ESE 20:56:14 10° NE
Meteor 1-5 Rocket 4.3 20:47:52 10° SSE 20:52:58 50° E 20:58:05 10° NNE
H-2A R/B 3.3 20:49:01 10° ESE 20:53:00 25° ENE 20:56:57 10° N
EXPRESS MD2 3.4 20:52:04 10° SW 20:54:46 45° SSE 20:59:34 10° E
Meteor 2-4 Rocket 4.0 20:52:48 10° NNW 20:58:20 73° W 21:04:00 10° S
NOAA 11 4.4 20:54:21 10° SE 20:59:44 58° ENE 21:05:08 10° N
USA 186 3.8 20:58:46 10° SSW 21:01:47 30° W 21:04:49 10° NNW
Helios 1B rocket 2.8 21:00:46 10° NNE 21:04:42 42° E 21:08:37 10° S
MetOp-A 4.3 21:06:05 11° SE 21:11:03 58° ENE 21:16:19 10° N
Cosmos 1110 Rocket 4.2 21:07:26 10° S 21:12:20 46° ESE 21:17:17 10° NE
Cosmos 1455 Rocket 4.5 21:14:10 17° ESE 21:15:54 21° E 21:19:14 10° NE
SPOT 5 3.4 21:12:51 16° SE 21:16:17 40° ENE 21:20:33 10° N
ATLAS 2AS CENTAUR R/B 3.1 21:09:50 10° SSW 21:17:29 62° ESE 21:25:31 10° NE
Lacrosse 5 2.1 21:14:20 10° SSW 21:19:11 48° SE 21:24:04 10° ENE
CENTAUR R/B 4.0 21:15:54 10° NW 21:22:47 39° NNE 21:30:20 10° E
SL-8 R/B 4.1 21:18:32 10° W 21:23:09 49° SSW 21:26:12 20° SE
SeaSat 1 2.4 21:19:48 10° NNE 21:24:47 84° ESE 21:29:43 10° SSW
Cosmos 1331 Rocket 4.1 21:20:16 10° S 21:25:17 53° ESE 21:30:23 10° NNE
NOSS 2-3 (E) 4.0 21:22:50 10° SW 21:27:41 86° SE 21:33:34 10° NE
SL-08 RB Rocket 4.0 21:27:46 20° SE 21:30:43 52° ENE 21:35:08 10° N
Cosmos 1743 4.2 21:31:23 19° E 21:31:42 20° E 21:34:30 10° NE
BREEZE-M DEB (TANK) 1.5 21:29:27 10° SW 21:31:42 38° SSE 21:31:42 38° SSE
Cosmos 1025 Rocket 3.3 21:28:41 10° NNW 21:32:56 66° W 21:37:03 11° S
Okean 2 3.5 21:29:25 10° NNW 21:33:31 73° W 21:37:03 13° S
Okean 1 Rocket 3.3 21:29:58 10° SSW 21:34:19 70° WNW 21:38:43 10° N
YAOGAN 6 4.0 21:32:02 10° SSW 21:35:18 35° W 21:38:34 10° NNW
ARGOS 3.1 21:31:25 17° SSE 21:35:36 74° ENE 21:40:59 10° NNW
ERBS 3.9 21:36:27 10° W 21:39:43 36° NNW 21:42:58 10° NE
Cosmos 1354 Rocket 4.5 21:34:57 10° NNW 21:40:09 49° ENE 21:43:07 24° ESE
Cosmos 1244 Rocket 4.4 21:34:46 10° S 21:40:50 66° E 21:46:55 10° NNE
Cosmos 2263 Rocket 3.8 21:36:04 10° NW 21:40:59 31° WSW 21:45:52 10° SSW
Abrixas rocket 2.5 21:38:22 10° W 21:41:34 48° SSW 21:42:28 36° SE
Okean 1-7 Rocket 4.2 21:39:11 10° NNW 21:43:36 56° W 21:47:54 11° S
Cosmos 1515 4.1 21:41:21 10° NNW 21:45:08 62° W 21:47:54 17° S
Cosmos 2278 Rocket 3.0 21:39:56 10° NNW 21:45:17 39° NE 21:48:29 21° ESE
Cosmos 1844 Rocket 2.7 21:42:41 10° NNW 21:48:24 83° ENE 21:51:50 25° SSE
Resurs 01 Rocket 4.5 21:47:42 10° WSW 21:49:48 13° W 21:51:54 10° WNW
Cosmos 2322 Rocket 3.2 21:44:34 10° SW 21:50:06 49° NW 21:55:39 10° NNE
Molniya-1 4.0 21:49:43 10° NW 21:52:19 54° SW 21:53:13 38° S
Cosmos 1818 4.1 21:50:30 19° S 21:53:40 35° ESE 21:58:34 10° NE
Cosmos 1975 2.8 21:52:10 29° SSE 21:53:59 59° E 21:57:56 10° NNE
SPOT 1/Viking Rocket 3.6 21:51:20 26° SSE 21:54:19 69° ENE 21:59:32 10° N
Cosmos 1602 Rocket 4.3 21:51:47 10° N 21:55:49 36° ENE 21:56:59 30° ESE
USA 215 4.1 21:49:37 10° ENE 21:55:52 50° N 22:02:09 10° WNW
YAOGAN 11 4.0 21:54:27 30° SSE 21:56:35 79° ENE 22:00:55 10° NNW
Cosmos 2237 4.2 21:51:00 10° SSW 21:56:36 62° ESE 22:02:14 10° NE
Terra 2.6 21:55:49 28° ESE 21:57:38 38° ENE 22:02:02 10° N
Meteor 1-29 3.5 21:54:56 10° N 21:58:20 58° WNW 22:01:33 11° SSW
Cosmos 1503 Rocket 4.1 21:55:57 10° NNW 22:01:20 70° ENE 22:03:53 32° SE
H-2A R/B 3.5 22:00:58 21° E 22:02:09 24° ENE 22:05:43 10° N
SL-16 R/B 3.5 21:57:07 10° WSW 22:02:29 42° NW 22:07:53 10° NNE
Cosmos 1500 3.3 22:01:58 19° SSW 22:04:38 77° W 22:08:32 10° N
Cosmos 724 4.2 22:00:58 10° NW 22:06:56 88° SW 22:09:48 32° SE
Cosmos 2219 Rocket 2.8 22:06:05 31° SE 22:07:24 35° ESE 22:12:31 10° NE
BREEZE M DEB (TANK) 2.8 22:01:07 10° W 22:07:51 78° S 22:08:43 46° ESE
NOSS 3-2 (A) 4.0 22:00:56 10° NW 22:08:18 81° SW 22:13:01 28° SSE
USA 245 3.9 22:05:52 24° S 22:08:44 65° WSW 22:12:43 10° NNW
USA 238 DEB 4.4 22:03:37 10° NW 22:10:23 49° WSW 22:14:51 22° S
USA 238 4.3 22:03:43 10° NW 22:10:30 50° WSW 22:14:57 22° S
ERS-1 Rocket 3.9 22:06:41 13° SSW 22:10:49 43° W 22:15:38 10° NNW
Meteor 1-12 Rocket 4.1 22:09:22 20° S 22:13:22 77° E 22:19:03 10° NNE
Cosmos 2322 3.7 22:07:59 10° SSW 22:13:40 83° WNW 22:19:24 10° NNE
Cosmos 1626 Rocket 3.5 22:15:19 10° N 22:19:38 65° ENE 22:20:36 49° SE
Cosmos 1892 Rocket 4.4 22:18:08 10° NNW 22:22:24 46° W 22:24:47 23° SSW
Cosmos 2360 Rocket 2.7 22:16:56 10° SW 22:22:31 62° WNW 22:28:08 10° NNE
ATLAS 3B R/B 3.7 22:18:36 10° NW 22:24:33 34° WSW 22:28:26 19° SSW
COSMOS 2428 2.6 22:19:31 13° SSW 22:24:42 73° ESE 22:30:26 10° NNE
Cosmos 1844 3.9 22:21:35 10° NNW 22:27:13 68° WSW 22:29:39 35° S
ATLAS CENTAUR R/B 2.8 22:25:28 10° NNW 22:28:31 23° NE 22:29:33 21° ENE
Cosmos 1437 Rocket 2.6 22:30:01 64° SSE 22:30:31 76° E 22:34:28 10° NNE
H-2A R/B 2.4 22:29:39 28° SSW 22:32:07 56° W 22:37:01 10° NNW
Meteor 1-4 Rocket 4.3 22:35:13 23° ENE 22:35:13 23° ENE 22:37:18 10° NNE
Cosmos 1745 Rocket 3.9 22:30:27 26° S 22:34:04 87° E 22:40:17 10° N
NOSS 0 Rocket 4.3 22:35:52 39° SE 22:36:48 42° ESE 22:42:37 10° NE
Cosmos 2333 Rocket 2.4 22:36:58 44° SE 22:37:53 48° ESE 22:43:19 10° NE
Cosmos 405 4.4 22:36:26 21° SW 22:38:19 38° WNW 22:41:44 10° N
Cosmos 1544 Rocket 4.1 22:38:34 25° SW 22:40:59 56° WNW 22:45:23 10° N
Cosmos 1825 Rocket 4.2 22:38:47 10° N 22:42:52 39° ENE 22:42:57 39° ENE
Cosmos 2292 Rocket 4.4 22:40:34 31° S 22:44:11 79° E 22:49:46 10° NNE
Cosmos 2333 4.1 22:40:25 16° SSW 22:45:01 89° WNW 22:50:41 10° NNE
Cosmos 1302 Rocket 4.4 22:40:12 10° SW 22:45:27 63° WNW 22:50:43 10° NNE
IGS 5A 3.3 22:46:13 69° S 22:46:40 83° WSW 22:50:53 10° NNW
GP-B 3.0 22:42:22 10° N 22:46:52 83° E 22:47:27 66° SSE
Cosmos 1992 Rocket 4.1 22:46:40 51° ESE 22:47:04 53° ESE 22:52:08 10° NNE
NOSS 3-2 (C) 4.1 22:40:07 10° NW 22:47:27 66° SW 22:50:54 36° SSE
BREEZE-M DEB (TANK) 4.1 22:43:43 10° WSW 22:48:25 83° S 23:09:32 10° E
Cosmos 1707 4.4 22:45:34 10° NNE 22:48:14 23° ENE 22:48:14 23° ENE
Cosmos 1666 2.7 22:49:48 77° WSW 22:49:57 79° W 22:53:51 10° N
COSMOS 2455 3.4 22:45:04 10° NNW 22:50:55 50° NE 22:53:12 34° E
Cosmos 2369 Rocket 4.4 22:47:21 10° N 22:51:12 18° NNE 22:55:00 10° ENE
Cosmos 968 Rocket 3.4 22:46:29 10° NNW 22:51:37 70° ENE 22:52:34 56° ESE
Aureole 2 Rocket 3.4 22:53:55 40° NNE 22:53:55 40° NNE 22:56:05 10° NNE
Cosmos 1455 Rocket 3.9 22:51:16 26° SW 22:53:24 48° WNW 22:57:46 10° N
Cosmos 2237 Rocket 2.5 22:54:11 45° ESE 22:54:11 45° ESE 22:59:32 10° NE
CZ-4 R/B 4.5 22:49:45 10° NNE 22:53:52 39° E 22:53:52 39° E
SPOT 5 4.3 22:52:07 20° SW 22:54:27 29° W 22:58:30 10° NW
Cosmos 1842 3.3 22:53:44 10° NNW 22:57:40 71° W 22:57:40 71° W
Cosmos 1386 Rocket 4.5 22:54:44 33° SSW 22:57:45 81° W 23:04:09 10° N
Cosmos 1758 Rocket 4.2 22:54:35 10° N 22:58:36 42° ENE 22:58:36 42° ENE
Cosmos 1980 3.8 23:00:19 53° SE 23:00:42 54° ESE 23:06:15 10° NE
Lacrosse 5 2.5 22:57:08 10° WSW 23:02:09 57° NNW 23:07:10 10° ENE
BREEZE-M DEB (TANK) 3.9 22:47:33 10° WSW 23:05:35 73° SSE 23:08:19 29° E
Cosmos 1340 Rocket 4.2 23:02:47 10° N 23:05:41 28° NE 23:05:41 28° NE
Cosmos 1743 3.9 23:06:30 33° WSW 23:07:17 38° WNW 23:10:53 10° N
ATLAS 2AS CENTAUR R/B 3.9 23:01:08 10° WSW 23:08:52 52° NNW 23:16:49 10° NE
SL-24 R/B 4.3 23:07:31 10° N 23:12:23 64° E 23:12:27 64° E
EXPRESS MD2 4.1 23:08:32 10° W 23:12:36 87° S 23:21:24 10° E
CENTAUR R/B 3.0 23:06:43 10° NW 23:14:27 88° NE 23:17:39 43° SE
Cosmos 2297 3.7 23:11:13 10° NNW 23:16:55 75° ENE 23:17:53 60° ESE
ERBS 4.4 23:14:03 10° NW 23:17:02 26° N 23:18:03 22° NNE
Cosmos 2184 Rocket 4.5 23:17:08 40° ESE 23:17:42 41° E 23:23:28 10° NNE
NOSS 3-4 (A) 3.4 23:16:06 38° SSW 23:18:41 76° SE 23:25:15 10° NE
NOSS 3-4 (C) 3.4 23:16:18 39° SSW 23:18:47 75° SE 23:25:21 10° NE
Cosmos 2074 Rocket 4.4 23:18:19 43° ESE 23:18:58 44° E 23:24:51 10° NNE
CZ-4B R/B 3.8 23:14:58 10° NNE 23:18:57 45° ENE 23:18:57 45° ENE
SL-08 ROCKET BODY 4.4 23:19:49 55° ESE 23:20:25 58° E 23:26:10 10° NNE
Cosmos 1184 Rocket 4.5 23:17:54 10° N 23:19:51 32° N 23:19:51 32° N
DELTA 2 DEB (DPAF) 4.1 23:26:41 83° N 23:26:41 83° N 23:31:03 10° NNW
BREEZE-M (TANK) 4.4 23:20:25 10° WNW 23:27:53 29° SW 23:27:53 29° SW
ALOS 2 3.6 23:28:48 35° ENE 23:28:48 35° ENE 23:32:35 10° N
Cosmos 2278 Rocket 2.8 23:24:05 10° NW 23:29:28 45° WSW 23:30:19 42° SW
ARGOS Delta rocket 3.9 23:25:59 10° N 23:30:31 66° WNW 23:30:57 62° WSW
Terra 3.1 23:34:42 30° WSW 23:35:26 31° W 23:39:41 10° NNW
Cosmos 1818 4.2 23:31:46 10° WSW 23:37:05 53° NW 23:42:27 10° NE
Cosmos 1726 Rocket 4.1 23:38:29 51° NE 23:38:29 51° NE 23:42:03 10° NNE
H-2A R/B 2.8 23:38:05 46° W 23:38:05 46° W 23:42:11 10° NNW
USA 215 3.6 23:33:40 19° E 23:38:24 61° NNE 23:44:50 10° WNW
Cosmos 2181 Rocket 4.3 23:32:17 10° NNW 23:38:39 62° W 23:40:18 47° SSW
Cosmos 1953 Rocket 3.8 23:35:46 10° NNW 23:39:51 70° NW 23:39:51 70° NW
Cosmos 1709 Rocket 4.2 23:39:58 42° SW 23:41:59 63° WNW 23:48:14 10° N
CZ-2C R/B 3.1 23:41:03 10° NNE 23:45:57 48° E 23:45:57 48° E
CZ-2C R/B 2.8 23:48:33 79° NNE 23:48:33 79° NNE 23:53:13 10° NNW
Cosmos 2219 Rocket 3.0 23:47:44 21° WSW 23:51:15 47° NW 23:56:43 10° NNE
Meteor 2-13 Rocket 4.3 23:52:14 67° SSW 23:53:10 89° W 23:59:22 10° N
